Weather History for Beckley, WV

Change the Weather History Date:

Wednesday, October 30, 2013

  Actual Average Record
Temperature  
Mean Temperature 57 °F 49 °F  
Max Temperature 60 °F 59 °F 79 °F (1950)
Min Temperature 53 °F 39 °F 15 °F (1952)
Degree Days  
Heating Degree Days 8 16  
Month to date heating degree days 321 357  
Since 1 July heating degree days 430 491  
Cooling Degree Days 0 0  
Month to date cooling degree days 15 2  
Year to date cooling degree days 615 552  
Growing Degree Days 6 (Base 50)    
Moisture  
Dew Point 53 °F    
Average Humidity 83    
Maximum Humidity 93    
Minimum Humidity 72    
Precipitation  
Precipitation 0.29 in 0.09 in 1.63 in (2012)
Month to date precipitation 1.50 2.48  
Year to date precipitation 33.19 35.15  
Snow  
Snow 0.00 in - - ()
Month to date snowfall T  
Since 1 September snowfall T  
Snow Depth 0.00 in    
Sea Level Pressure  
Sea Level Pressure 30.21 in    
Wind  
Wind Speed 5 mph (SSW)    
Max Wind Speed 12 mph    
Max Gust Speed 18 mph    
Visibility 7 miles    
Events Rain    
T = Trace of Precipitation, MM = Missing Value Source: NWS Daily Summary

Daily Weather History Graph

Daily Weather History Graph

Search for Another Location

Airport:

Trip Planner

Search our weather history database for the weather conditions in past years. The results will help you decide how hot, cold, wet, or windy it might be!

Date:

Astronomy

Oct. 30, 2013 Rise Set
Actual Time 7:48 AM EDT 6:27 PM EDT
Civil Twilight 7:20 AM EDT 6:54 PM EDT
Nautical Twilight 6:49 AM EDT 7:25 PM EDT
Astronomical Twilight 6:19 AM EDT 7:56 PM EDT
Moon 3:39 AM EDT 4:08 PM EDT
Length of Visible Light 11h 33m
Length of Day
10h 39m
Waning Crescent, 17% of the Moon is Illuminated
Oct 30
Waning Crescent
Nov 3
New
Nov 10
First Quarter
Nov 17
Full
Nov 25
Last Quarter

Hourly Weather History & Observations

Time (EDT) Temp. Dew Point Humidity Pressure Visibility Wind Dir Wind Speed Gust Speed Precip Events Conditions
12:51 AM 55.0 °F 46.9 °F 74% 30.23 in 10.0 mi SSE 6.9 mph - N/A   Overcast
1:51 AM 55.9 °F 48.0 °F 75% 30.22 in 10.0 mi SSE 8.1 mph - N/A   Overcast
2:51 AM 55.9 °F 48.0 °F 75% 30.20 in 10.0 mi SSE 5.8 mph - N/A   Overcast
3:51 AM 54.0 °F 48.9 °F 83% 30.19 in 9.0 mi SSE 5.8 mph - 0.01 in Rain Light Rain
4:51 AM 54.0 °F 50.0 °F 86% 30.21 in 9.0 mi South 6.9 mph - 0.06 in Rain Light Rain
5:51 AM 54.0 °F 50.0 °F 86% 30.21 in 5.0 mi SSE 4.6 mph - 0.02 in Rain Rain
6:21 AM 53.6 °F 50.0 °F 88% 30.23 in 10.0 mi SE 3.5 mph - 0.03 in   Overcast
6:51 AM 53.1 °F 50.0 °F 89% 30.20 in 10.0 mi SSE 3.5 mph - 0.04 in   Overcast
7:37 AM 53.6 °F 50.0 °F 88% 30.22 in 6.0 mi SSE 4.6 mph - 0.03 in Rain Light Rain
7:51 AM 53.1 °F 51.1 °F 93% 30.21 in 6.0 mi SSW 4.6 mph - 0.06 in Rain Light Rain
8:12 AM 53.6 °F 51.8 °F 94% 30.23 in 7.0 mi SSW 5.8 mph - 0.01 in Rain Light Rain
8:31 AM 53.6 °F 51.8 °F 94% 30.23 in 8.0 mi SW 8.1 mph - 0.02 in Rain Light Rain
8:46 AM 55.4 °F 51.8 °F 88% 30.24 in 7.0 mi SW 9.2 mph - 0.02 in Rain Light Rain
8:51 AM 55.0 °F 52.0 °F 89% 30.21 in 7.0 mi SW 5.8 mph - 0.02 in Rain Light Rain
9:48 AM 55.4 °F 51.8 °F 88% 30.25 in 2.5 mi WSW 9.2 mph - 0.02 in Rain Light Rain
9:51 AM 55.0 °F 53.1 °F 93% 30.23 in 2.5 mi WSW 9.2 mph - 0.03 in Rain Light Rain
10:00 AM 55.4 °F 53.6 °F 94% 30.25 in 5.0 mi WSW 8.1 mph - 0.00 in Rain Light Rain
10:51 AM 55.9 °F 53.1 °F 90% 30.22 in 6.0 mi WSW 6.9 mph - 0.01 in Rain Light Rain
10:59 AM 55.4 °F 53.6 °F 94% 30.25 in 1.8 mi SW 5.8 mph - 0.02 in Rain Rain
11:10 AM 55.4 °F 53.6 °F 94% 30.25 in 3.0 mi WSW 9.2 mph - 0.02 in Rain Light Rain
11:34 AM 55.4 °F 53.6 °F 94% 30.25 in 2.5 mi WSW 9.2 mph - 0.04 in Rain Light Rain
11:51 AM 55.9 °F 54.0 °F 93% 30.22 in 3.0 mi WSW 8.1 mph - 0.04 in Rain Light Rain
12:51 PM 57.0 °F 54.0 °F 89% 30.21 in 8.0 mi WSW 9.2 mph - 0.00 in   Overcast
1:51 PM 59.0 °F 55.0 °F 87% 30.19 in 10.0 mi WSW 9.2 mph - N/A   Overcast
2:51 PM 59.0 °F 55.0 °F 87% 30.17 in 10.0 mi SW 4.6 mph - N/A   Overcast
3:04 PM 59.0 °F 55.4 °F 88% 30.20 in 10.0 mi SSW 5.8 mph - N/A   Overcast
3:37 PM 57.2 °F 55.4 °F 94% 30.19 in 3.0 mi SSW 5.8 mph - 0.00 in Rain Light Rain
3:48 PM 57.2 °F 55.4 °F 94% 30.19 in 4.0 mi SW 4.6 mph - 0.00 in Rain Light Rain
3:51 PM 57.9 °F 55.9 °F 93% 30.17 in 4.0 mi SSW 3.5 mph - 0.00 in Rain Light Rain
4:02 PM 59.0 °F 55.4 °F 88% 30.20 in 5.0 mi SSW 5.8 mph - 0.00 in   Overcast
4:41 PM 59.0 °F 55.4 °F 88% 30.20 in 8.0 mi SW 4.6 mph - 0.00 in   Overcast
4:51 PM 59.0 °F 55.9 °F 90% 30.17 in 6.0 mi SW 4.6 mph - 0.00 in   Overcast
4:58 PM 59.0 °F 55.4 °F 88% 30.20 in 4.0 mi SW 3.5 mph - 0.00 in Rain Light Rain
5:51 PM 59.0 °F 55.9 °F 90% 30.18 in 7.0 mi Calm Calm - 0.00 in   Overcast
6:23 PM 59.0 °F 55.4 °F 88% 30.21 in 7.0 mi Calm Calm - N/A   Overcast
6:51 PM 59.0 °F 55.9 °F 90% 30.19 in 8.0 mi Calm Calm - N/A   Overcast
7:51 PM 57.9 °F 55.0 °F 90% 30.19 in 9.0 mi South 3.5 mph - N/A   Overcast
8:51 PM 57.9 °F 54.0 °F 87% 30.19 in 10.0 mi SSE 5.8 mph - N/A   Mostly Cloudy
9:51 PM 59.0 °F 55.0 °F 87% 30.18 in 10.0 mi South 4.6 mph - N/A   Mostly Cloudy
10:51 PM 57.9 °F 55.0 °F 90% 30.18 in 10.0 mi Calm Calm - N/A   Overcast
11:51 PM 57.9 °F 54.0 °F 87% 30.16 in 10.0 mi Calm Calm - N/A   Clear